Regional Weather Roundup
Issued by NWS Boston, MA

Home | Current Version | Previous Version | Text Only | Print | Product List | Glossary On
Versions: 1 2 3 4 5 6 7 8 9 10 11 12 13 14 15 16 17 18 19 20 21 22 23 24 25 26 27 28 29 30 31 32 33 34 35 36 37 38 39 40 41 42 43 44 45 46 47 48 49
000
ASUS41 KBOX 020410
RWRBOX

REGIONAL WEATHER ROUNDUP
NATIONAL WEATHER SERVICE TAUNTON MA
1200 AM EDT TUE SEP 02 2014

NOTE:  "FAIR" INDICATES FEW OR NO CLOUDS BELOW 12,000 FEET WITH NO
SIGNIFICANT WEATHER AND/OR OBSTRUCTIONS TO VISIBILITY.  THE FOLLOWING
OBSERVATION LOCATIONS DO NOT REPORT PRESENT WEATHER...PROVINCETOWN...
SMITHFIELD...BLOCK ISLAND...KEENE...AND OXFORD.

MAZALL-020500-
EASTERN MASSACHUSETTS

CITY           SKY/WX    TMP DP  RH WIND       PRES   REMARKS
BOSTON         PTCLDY    77  71  82 SW10      29.93S
BEVERLY        CLEAR     71  68  90 CALM      29.93R
LAWRENCE       CLEAR     72  69  90 SW5       29.95R
BEDFORD        CLEAR     72  70  93 SW6       29.93R
BLUE HILL        N/A     74  71  91 SW10      29.95F
NORWOOD        CLEAR     71  69  93 CALM      29.94S
MARSHFIELD     CLEAR     73  72  94 CALM      29.95S
PLYMOUTH       CLEAR     71  67  87 S3        29.95F
TAUNTON        CLEAR     74  70  87 VRB6      29.94F
NEW BEDFORD    CLEAR     72  70  93 SW5       29.95S
$$

MAZALL-020500-
CAPE COD AND THE ISLANDS

CITY           SKY/WX    TMP DP  RH WIND       PRES   REMARKS
FALMOUTH       CLOUDY    72  72 100 SW9       29.96F
HYANNIS        PTCLDY    73  70  90 SW12      29.95S
CHATHAM        CLOUDY    71  70  96 VRB6      29.97S
PROVINCETOWN   CLEAR     70  68  94 SW8       29.94F
NANTUCKET      FOG       69  69 100 SW9       29.97F VSB 1/4
MARTHAS VNYRD  FOG       69  69 100 SW8       29.97S VSB 1/2
$$

MAZALL-020500-
CENTRAL AND WESTERN MASSACHUSETTS

CITY           SKY/WX    TMP DP  RH WIND       PRES   REMARKS
WORCESTER      CLEAR     71  69  93 W8        29.99R
FITCHBURG      CLEAR     71  68  90 CALM      29.95S
ORANGE         MOCLDY    69  67  93 CALM      29.96S
SPRINGFIELD    CLEAR     74  71  91 S5        29.94S
WESTFIELD      MOCLDY    72  70  93 S5        29.94S
NORTH ADAMS    MOCLDY    69  66  90 VRB3      29.96S
PITTSFIELD     CLOUDY    67  66  97 CALM      29.97F
$$

RIZALL-020500-
RHODE ISLAND

CITY           SKY/WX    TMP DP  RH WIND       PRES   REMARKS
PROVIDENCE     PTCLDY    73  70  90 S6        29.96S
NEWPORT        CLEAR     72  70  93 S5        29.96F
BLOCK ISLAND   CLOUDY    72  70  94 SW10      29.97F VSB 1/2
SMITHFIELD     CLEAR     72  66  83 S3        29.96S
WESTERLY       CLEAR     73  71  93 CALM      29.96F
$$

CTZALL-020500-
CONNECTICUT

CITY           SKY/WX    TMP DP  RH WIND       PRES   REMARKS
BRADLEY INTL   MOCLDY    77  71  82 S6        29.93F
HARTFORD       CLOUDY    76  71  85 S5        29.94S
BRIDGEPORT     PTCLDY    78  74  87 CALM      29.94F
DANBURY        CLEAR     72  70  93 CALM      29.97F
GROTON         MOCLDY    72  71  97 CALM      29.95F
NEW HAVEN      CLOUDY    77  72  84 CALM      29.94F
CHESTER        FAIR      73  72  94 SW5       29.97S
MERIDEN        CLOUDY    75  71  87 SE3       29.95S
WILLIMANTIC    MOCLDY    74  70  87 CALM      29.96S
OXFORD         CLOUDY    73  70  88 CALM      29.99F
$$

MEZ002-015-021-024-NHZ003-005-008-011-012-014-VTZ005-008-020500-
NORTHERN NEW ENGLAND

CITY           SKY/WX    TMP DP  RH WIND       PRES   REMARKS
PORTLAND ME    CLEAR     68  65  90 CALM      29.93S
BANGOR ME      LGT RAIN  69  67  93 S5        29.94S
CONCORD NH     CLEAR     66  65  96 CALM      29.94S
MANCHESTER NH  CLEAR     72  68  87 CALM      29.92S
NASHUA NH      CLEAR     70  69  96 CALM      29.94R
PORTSMOUTH NH  CLEAR     69  68  94 W3        29.92S
JAFFREY NH     CLEAR     66  65  96 S3        29.99R
KEENE NH       PTCLDY    66  57  72 CALM      29.96S
BURLINGTON VT  CLEAR     74  64  71 S8        29.88F
MT. WASHINGTON CLEAR     52  50  93 W21         N/A
$$

NYZ052-076-020500-
EASTERN NEW YORK

CITY           SKY/WX    TMP DP  RH WIND       PRES   REMARKS
ALBANY         MOCLDY    76  69  79 S6        29.92S
NEW YORK CITY  PTCLDY    81  73  76 SW9       29.93F
$$

ANZALL-020500-
MARINE OBSERVATIONS

STATION/POSITION TIME  TEMP    WIND        PRES    VSBY  WAVE
                       AIR SEA DIR/SP/G                  HT/PER
                 (UTC) (F)     (DEG/KT/KT) (MB)    (MI)  (FT/S)
BOSTON BUOY      0350   71 67  230/  8/  8 1013.7F         1/10
BUZZARDS BAY     0300          220/ 13/ 14 1015.5R
NANTUCKET SOUND  0350   70 71  220/ 14/ 16 1014.4F         1/ 6
MASS BAY-STELLWA 0304   71 67  220/ 10/ 12   N/A    1 7/8  1/ 5
ISLE OF SHOALS   0400   72     210/ 11/ 11 1012.8R
S OF BLOCK IS    0308      69                N/A           3/ 6
$$

......................KEY.........................
  SKY/WX - SKY CONDITION/PRESENT WEATHER
  TMP    - TEMPERATURE IN FAHRENHEIT
  DWPT   - DEWPOINT IN FAHRENHEIT
  RH     - RELATIVE HUMIDITY IN PERCENT
  WIND   - DIRECTION AND SPEED IN MPH
  PRES   - MEAN SEA LEVEL PRESSURE IN INCHES OF HG
  WCI    - WIND CHILL INDEX
  VSB    - VISIBILITY IN MILES
  HX     - HEAT INDEX
  TC     - TEMPERATURE IN CELSIUS
  VRB    - VARIABLE WIND DIRECTION
  N/A    - NOT AVAILABLE



USA.gov is the U.S. government's official web portal to all federal, state and local government web resources and services.